Weather History for Detroit Lakes, MN

Change the Weather History Date:

Thursday, January 3, 2013

  Actual Average Record
Temperature  
Mean Temperature 10 °F -  
Max Temperature 21 °F 15 °F 40 °F (1944)
Min Temperature 0 °F -3 °F -33 °F (1947)
Degree Days  
Heating Degree Days 54    
Moisture  
Dew Point 8 °F    
Average Humidity 91    
Maximum Humidity 100    
Minimum Humidity 80    
Precipitation  
Precipitation 0.00 in - - ()
Sea Level Pressure  
Sea Level Pressure 30.12 in    
Wind  
Wind Speed 10 mph (WSW)    
Max Wind Speed 16 mph    
Max Gust Speed 21 mph    
Visibility 9 miles    
Events Snow    
Averages and records for this station are not official NWS values.
T = Trace of Precipitation, MM = Missing Value Source: NWS Daily Summary

Daily Weather History Graph

Daily Weather History Graph

Search for Another Location

Airport:

Trip Planner

Search our weather history database for the weather conditions in past years. The results will help you decide how hot, cold, wet, or windy it might be!

Date:

Astronomy

Jan. 03, 2013 Rise Set
Actual Time 8:08 AM CST 4:48 PM CST
Civil Twilight 7:33 AM CST 5:23 PM CST
Nautical Twilight 6:55 AM CST 6:01 PM CST
Astronomical Twilight 6:18 AM CST 6:38 PM CST
Moon 11:52 PM CST (1/3) 10:55 AM CST (1/3)
Length of Visible Light 9h 49m
Length of Day
8h 39m
Waning Gibbous, 65% of the Moon is Illuminated
Jan 3
Waning Gibbous
Jan 4
Last Quarter
Jan 11
New
Jan 18
First Quarter
Jan 26
Full

Hourly Weather History & Observations

Time (CST) Temp. Windchill Dew Point Humidity Pressure Visibility Wind Dir Wind Speed Gust Speed Precip Events Conditions
12:12 AM 5.0 °F -10.8 °F 3.2 °F 92% 30.15 in 7.0 mi NW 11.5 mph 18.4 mph N/A Snow Light Snow
12:33 AM 5.0 °F -11.6 °F 3.2 °F 92% 30.16 in 4.0 mi NW 12.7 mph 18.4 mph N/A Snow Light Snow
12:52 AM 5.0 °F -13.6 °F 3.2 °F 92% 30.16 in 3.0 mi NNW 16.1 mph - N/A Snow Light Snow
1:13 AM 5.0 °F -13.6 °F 3.2 °F 92% 30.17 in 4.0 mi NW 16.1 mph 20.7 mph N/A Snow Light Snow
1:32 AM 5.0 °F -12.3 °F 3.2 °F 92% 30.16 in 2.0 mi NW 13.8 mph - N/A Snow Light Snow
1:52 AM 5.0 °F -10.8 °F 1.4 °F 85% 30.17 in 5.0 mi NW 11.5 mph - N/A Snow Light Snow
2:08 AM 3.2 °F -13.1 °F 1.4 °F 92% 30.17 in 10.0 mi NW 11.5 mph - N/A Snow Light Snow
2:25 AM 3.2 °F -11.3 °F -0.4 °F 85% 30.17 in 10.0 mi NW 9.2 mph - N/A   Overcast
2:36 AM 3.2 °F -11.3 °F 1.4 °F 92% 30.18 in 10.0 mi NNW 9.2 mph - N/A Snow Light Snow
2:52 AM 3.2 °F -13.1 °F 1.4 °F 92% 30.19 in 10.0 mi NW 11.5 mph - N/A Snow Light Snow
3:13 AM 3.2 °F -13.1 °F 1.4 °F 92% 30.20 in 10.0 mi NNW 11.5 mph - N/A Snow Light Snow
3:25 AM 3.2 °F -13.9 °F 1.4 °F 92% 30.20 in 7.0 mi NNW 12.7 mph - N/A Snow Light Snow
3:52 AM 3.2 °F -13.1 °F 1.4 °F 92% 30.21 in 4.0 mi NNW 11.5 mph - N/A Snow Light Snow
4:13 AM 3.2 °F -15.3 °F 1.4 °F 92% 30.21 in 5.0 mi NNW 15.0 mph - N/A Snow Light Snow
4:33 AM 1.4 °F -15.3 °F -0.4 °F 92% 30.21 in 7.0 mi NW 11.5 mph 16.1 mph N/A   Overcast
4:52 AM 1.4 °F -14.5 °F -0.4 °F 92% 30.21 in 10.0 mi NW 10.4 mph - N/A   Mostly Cloudy
5:13 AM 1.4 °F -12.5 °F -2.2 °F 85% 30.21 in 10.0 mi NNW 8.1 mph - N/A   Clear
5:33 AM -0.4 °F -13.4 °F -2.2 °F 92% 30.21 in 10.0 mi NNW 6.9 mph - N/A   Clear
5:52 AM -0.4 °F -12.0 °F -2.2 °F 92% 30.21 in 10.0 mi NW 5.8 mph - N/A   Clear
6:13 AM -0.4 °F -13.4 °F -2.2 °F 92% 30.23 in 10.0 mi WNW 6.9 mph - N/A   Clear
6:33 AM -0.4 °F -13.4 °F -2.2 °F 92% 30.23 in 10.0 mi NW 6.9 mph - N/A   Clear
6:52 AM -0.4 °F -13.4 °F -2.2 °F 92% 30.22 in 7.0 mi NW 6.9 mph - N/A   Scattered Clouds
7:33 AM -0.4 °F -10.4 °F -2.2 °F 92% 30.22 in 10.0 mi NW 4.6 mph - N/A   Clear
7:52 AM -0.4 °F - -4.0 °F 85% 30.21 in 10.0 mi Calm Calm - N/A   Clear
8:12 AM -0.4 °F -8.3 °F -4.0 °F 85% 30.21 in 10.0 mi West 3.5 mph - N/A   Clear
8:33 AM 1.4 °F -6.2 °F -0.4 °F 92% 30.22 in 7.0 mi West 3.5 mph - N/A Snow Light Snow
8:52 AM 1.4 °F - -2.2 °F 85% 30.21 in 1.5 mi Calm Calm - N/A Snow Light Snow
9:12 AM 1.4 °F -6.2 °F -0.4 °F 92% 30.21 in 4.0 mi SW 3.5 mph - N/A   Scattered Clouds
9:33 AM 3.2 °F -6.2 °F -0.4 °F 85% 30.20 in 7.0 mi SW 4.6 mph - N/A Snow Light Snow
9:52 AM 3.2 °F -4.2 °F 1.4 °F 92% 30.20 in 7.0 mi SW 3.5 mph - N/A Snow Light Snow
10:12 AM 5.0 °F -2.1 °F 3.2 °F 92% 30.21 in 5.0 mi SW 3.5 mph - N/A Snow Light Snow
10:33 AM 6.8 °F -0.1 °F 5.0 °F 92% 30.21 in 10.0 mi WSW 3.5 mph - N/A   Scattered Clouds
10:52 AM 8.6 °F -1.3 °F 6.8 °F 92% 30.20 in 10.0 mi SW 5.8 mph - N/A   Scattered Clouds
11:12 AM 10.4 °F 2.2 °F 8.6 °F 92% 30.18 in 10.0 mi SW 4.6 mph - N/A   Scattered Clouds
11:32 AM 10.4 °F 4.0 °F 8.6 °F 92% 30.18 in 5.0 mi SW 3.5 mph - N/A Snow Light Snow
11:52 AM 12.2 °F - 10.4 °F 92% 30.18 in 5.0 mi Calm Calm - N/A Snow Light Snow
12:13 PM 12.2 °F 2.9 °F 10.4 °F 92% 30.16 in 7.0 mi SSW 5.8 mph - N/A Snow Light Snow
12:32 PM 14.0 °F 5.1 °F 10.4 °F 86% 30.15 in 10.0 mi SSW 5.8 mph - N/A Snow Light Snow
12:52 PM 14.0 °F 2.9 °F 10.4 °F 86% 30.14 in 10.0 mi SW 8.1 mph - N/A   Mostly Cloudy
1:13 PM 14.0 °F 3.9 °F 10.4 °F 86% 30.14 in 10.0 mi SW 6.9 mph - N/A   Overcast
1:32 PM 14.0 °F 3.9 °F 12.2 °F 93% 30.12 in 10.0 mi SSW 6.9 mph - N/A   Overcast
1:52 PM 14.0 °F 2.0 °F 12.2 °F 93% 30.11 in 10.0 mi SSW 9.2 mph - N/A   Overcast
2:13 PM 15.8 °F 6.1 °F 12.2 °F 86% 30.11 in 10.0 mi SW 6.9 mph - N/A   Overcast
2:33 PM 17.6 °F 5.0 °F 14.0 °F 86% 30.11 in 10.0 mi WSW 11.5 mph - N/A   Overcast
2:52 PM 17.6 °F 6.4 °F 14.0 °F 86% 30.11 in 10.0 mi SW 9.2 mph - N/A   Overcast
3:33 PM 19.4 °F 7.9 °F 15.8 °F 86% 30.10 in 10.0 mi WSW 10.4 mph - N/A   Overcast
3:52 PM 19.4 °F 7.2 °F 17.6 °F 93% 30.09 in 10.0 mi SW 11.5 mph 17.3 mph N/A   Overcast
4:13 PM 19.4 °F 6.0 °F 17.6 °F 93% 30.08 in 10.0 mi SSW 13.8 mph - N/A   Overcast
4:32 PM 19.4 °F 7.9 °F 17.6 °F 93% 30.08 in 10.0 mi SW 10.4 mph - N/A   Scattered Clouds
4:53 PM 19.4 °F 7.2 °F 17.6 °F 93% 30.07 in 10.0 mi SW 11.5 mph 16.1 mph N/A   Clear
5:13 PM 19.4 °F 7.2 °F 17.6 °F 93% 30.06 in 10.0 mi SW 11.5 mph 16.1 mph N/A   Clear
5:32 PM 19.4 °F 7.9 °F 17.6 °F 93% 30.05 in 10.0 mi SSW 10.4 mph 17.3 mph N/A   Clear
5:53 PM 19.4 °F 7.2 °F 17.6 °F 93% 30.05 in 10.0 mi SW 11.5 mph - N/A   Clear
6:13 PM 17.6 °F 5.7 °F 17.6 °F 100% 30.04 in 10.0 mi SW 10.4 mph - N/A   Clear
6:32 PM 19.4 °F 7.2 °F 17.6 °F 93% 30.03 in 10.0 mi SW 11.5 mph - N/A   Clear
6:53 PM 17.6 °F 5.7 °F 17.6 °F 100% 30.02 in 10.0 mi SW 10.4 mph - N/A   Clear
7:13 PM 17.6 °F 5.0 °F 15.8 °F 93% 30.00 in 10.0 mi SSW 11.5 mph - N/A   Clear
7:32 PM 17.6 °F 5.0 °F 17.6 °F 100% 30.00 in 10.0 mi SSW 11.5 mph - N/A   Clear
7:53 PM 19.4 °F 7.2 °F 17.6 °F 93% 29.98 in 10.0 mi SW 11.5 mph - N/A   Clear
8:13 PM 19.4 °F 6.0 °F 17.6 °F 93% 29.97 in 10.0 mi SW 13.8 mph 17.3 mph N/A   Clear
8:32 PM 19.4 °F 6.6 °F 17.6 °F 93% 29.97 in 10.0 mi SW 12.7 mph 20.7 mph N/A   Clear
8:53 PM 19.4 °F 5.5 °F 17.6 °F 93% 29.95 in 10.0 mi SW 15.0 mph 18.4 mph N/A   Clear
9:13 PM 19.4 °F 7.2 °F 17.6 °F 93% 29.95 in 10.0 mi SW 11.5 mph 17.3 mph N/A   Clear
9:32 PM 21.2 °F 9.5 °F 17.6 °F 86% 29.96 in 10.0 mi SW 11.5 mph 17.3 mph N/A   Clear
9:53 PM 21.2 °F 12.6 °F 17.6 °F 86% 29.96 in 10.0 mi SW 6.9 mph - N/A   Clear
10:13 PM 21.2 °F 8.9 °F 17.6 °F 86% 29.95 in 10.0 mi WSW 12.7 mph 20.7 mph N/A   Clear
10:32 PM 21.2 °F 9.5 °F 17.6 °F 86% 29.95 in 10.0 mi WSW 11.5 mph - N/A   Clear
10:52 PM 21.2 °F 8.9 °F 17.6 °F 86% 29.95 in 10.0 mi WSW 12.7 mph 18.4 mph N/A   Clear
11:13 PM 21.2 °F 9.5 °F 17.6 °F 86% 29.95 in 10.0 mi WSW 11.5 mph - N/A   Clear
11:32 PM 21.2 °F 8.3 °F 17.6 °F 86% 29.95 in 10.0 mi WSW 13.8 mph 19.6 mph N/A   Clear
11:52 PM 21.2 °F 10.1 °F 15.8 °F 80% 29.93 in 10.0 mi WSW 10.4 mph 16.1 mph N/A   Clear